DELTA 1 DEB, 40764

Orbit data source: Space-Track

DELTA 1 DEB, 40764 is space debris in SSO originally from a launch on Thu, 29 Jul 1976 UTC launched from the Air Force Western Test Range (AFWTR). Debris objects in space refer to the collection of defunct objects orbiting the Earth. Examples of debris include non-operational satellites, rocket bodies, and fragments generated from explosions, collisions, or faulty payload assembly.

Loading next visibility...
Identifier
40764, 1976-077GH
Orbit
SSO
Country
Flag of USUS
Related business
Manufacturer
Unknown
Mission
Spacecraft
Bus & Motor
Unknown
Mass
Unknown
Launch date (UTC)
1976-07-29 (50 years ago)
Launch vehicle
Unknown
Launch site
Air Force Western Test Range (AFWTR)
Object type
Payload
Rocket body
Debris
Shape & HBR
Unknown shape, 0.1 m
Radar Cross Section
Medium (>0.1 m² and <1 m²)

Expand to show TLE details & history
Last TLE update: 5 days ago

TLE from 5 days ago
0 DELTA 1 DEB
1 40764U 76077GH  26168.23140961 -.00000038  00000-0  56033-4 0  9990
2 40764 102.2018 150.6720 0001917  61.1822 298.9433 12.40723339901839
Epoch: 2026-06-17T05:33Z
TLE epoch observation values (Epoch: 2026-06-17T05:33:13.790Z)
Latitude
-0.00005°
Longitude
161.8725°
Altitude
1,505.349 km
Speed
7.112 km/s
True Right ascension
10h 02m 41s
True Declination
0° 00' 00"
Sunlit
Object was in daylight at epoch
Visualization orbit readout
Latitude
Unknown
Longitude
Unknown
Altitude
Unknown
Speed
Unknown
Apparent Right ascension
Unknown
Apparent Declination
Unknown
Sunlit
N/A
Visualization observer readout
Local Sidereal Time
21:37:57
Azimuth
Unknown
Elevation
Unknown
Doppler factor
Unknown
Orbital elements
Apogee altitude
1,502.635 km
Perigee altitude
1,499.614 km
Semi-major axis
7,879.261 km
Eccentricity
0.00019
Inclination
102.2018°
RAAN
150.672°
Arg. of periapsis
61.1822°
True anomaly
298.92407°
Mean anomaly
298.9433°
Eccentric anomaly
298.93369°
Mean motion
3.10324 °/min
Orbital period
116.01 mins
BSTAR
0.000056033
Loading maneuver chart data...
Computing Atmospheric mass density...
Loading historical data...
Loading historical data...
Loading historical data...
Loading historical data...
Loading historical data...
Loading historical data...
Loading historical data...

Documentation

Showing up to 5 results
|